Location: Eaton Estates
(41.3089°N, 82.0057°W)
Time: 12:01:18
(UTC+00:00)

ATLAS CENTAUR R/B - Pass Details

Date: 17 June 2021
Orbit: 472 x 671 km, 64.6° (Epoch: 13 June)

Event Time Altitude Azimuth Distance (km) Brightness Sun altitude
Rises 04:04:00 0° 326° (NW) 2,808 6.3 -22.4°
Reaches altitude 10° 04:06:11 10° 326° (NW) 1,937 5.2 -22.5°
Maximum altitude 04:10:35 86° 240° (WSW) 628 1.4 -22.8°
Enters shadow 04:10:56 76° 164° (SSE) 647 1.4 -22.8°
